Temp
-11 -11 -10 -11 -10 -10 -10 -9 -9 -8 -8 -8 -8 -9 -9 -9 -9 -9 -9 -8 -8 -8 -8 -8 -8 -8 -7 -7 -7 -7 -6 -6 -6 -6 -6 -5 -6 -6 -6 -6 -6 -6 -6 -6
-12 -11 -11 -11 -11 -9 -10 -9 -9 -8 -8 -8 -8 -8 -9 -9 -9 -9 -8 -8 -8 -8 -8 -8 -8 -7 -7 -7 -7 -7 -7 -6 -6 -6 -6 -5 -5 -5 -5 -5 -5 -6 -6 -6
-12 -12 -11 -11 -10 -10 -10 -9 -8 -8 -8 -8 -8 -9 -8 -8 -8 -8 -8 -8 -8 -8 -8 -8 -8 -8 -8 -7 -7 -7 -7 -7 -7 -6 -6 -6 -6 -6 -6 -6 -6 -6 -7 -7
-12 -12 -12 -10 -10 -10 -10 -9 -9 -9 -9 -8 -8 -8 -8 -9 -9 -8 -8 -8 -8 -8 -8 -8 -8 -8 -8 -8 -8 -8 -7 -7 -7 -7 -7 -7 -7 -7 -7 -7 -7 -7 -7 -8
-12 -12 -11 -10 -10 -10 -10 -9 -9 -9 -9 -9 -9 -9 -8 -8 -8 -8 -8 -8 -8 -8 -8 -8 -8 -8 -8 -8 -8 -8 -8 -8 -8 -8 -8 -7 -7 -7 -8 -8 -7 -8 -8 -8
-12 -11 -11 -11 -11 -10 -10 -10 -10 -10 -10 -9 -9 -9 -8 -8 -8 -9 -8 -9 -9 -9 -9 -9 -8 -8 -8 -8 -8 -8 -8 -8 -8 -8 -8 -8 -8 -8 -8 -8 -8 -8 -8 -8
-11 -11 -11 -11 -10 -11 -10 -11 -10 -11 -11 -10 -9 -9 -9 -8 -9 -9 -9 -9 -9 -9 -9 -9 -8 -8 -8 -8 -8 -8 -8 -8 -8 -8 -8 -8 -8 -8 -8 -8 -8 -9 -9 -9
-11 -11 -11 -11 -11 -11 -11 -11 -11 -11 -10 -9 -10 -9 -9 -9 -9 -9 -9 -9 -9 -9 -9 -9 -9 -9 -9 -9 -9 -9 -9 -9 -9 -9 -9 -9 -9 -9 -9 -9 -9 -9 -9 -9
-11 -12 -12 -11 -11 -11 -11 -11 -11 -11 -10 -10 -10 -10 -10 -9 -10 -10 -10 -9 -9 -9 -9 -9 -9 -9 -9 -9 -9 -9 -9 -9 -9 -9 -9 -9 -9 -9 -9 -9 -9 -9 -9 -10
-12 -12 -12 -11 -11 -11 -11 -11 -11 -11 -10 -10 -10 -10 -10 -10 -10 -10 -10 -9 -9 -9 -9 -9 -9 -9 -9 -9 -9 -9 -9 -9 -9 -9 -9 -9 -9 -9 -9 -9 -10 -10 -10 -11
-12 -12 -12 -11 -11 -11 -11 -11 -11 -10 -10 -10 -10 -10 -10 -10 -9 -9 -9 -9 -9 -9 -9 -9 -8 -8 -9 -9 -9 -9 -9 -9 -9 -9 -10 -10 -10 -11 -11 -11 -11 -11 -11 -11
-12 -12 -11 -11 -11 -11 -11 -11 -10 -10 -10 -10 -10 -10 -10 -10 -10 -9 -9 -9 -8 -9 -9 -8 -8 -8 -8 -8 -9 -10 -10 -10 -11 -11 -11 -11 -11 -11 -11 -11 -11 -11 -11 -12
-12 -12 -11 -11 -11 -11 -11 -11 -11 -10 -10 -10 -10 -10 -10 -10 -10 -9 -9 -8 -9 -9 -9 -9 -9 -10 -10 -10 -10 -11 -11 -11 -11 -11 -11 -11 -12 -12 -12 -12 -12 -12 -12 -12
-12 -12 -12 -11 -12 -11 -11 -11 -11 -10 -10 -10 -10 -10 -10 -11 -9 -10 -10 -9 -9 -9 -9 -10 -10 -10 -11 -11 -11 -11 -11 -11 -11 -11 -12 -12 -12 -12 -13 -13 -13 -14 -14 -14
-12 -12 -12 -12 -11 -11 -11 -11 -11 -11 -11 -10 -10 -10 -11 -10 -10 -11 -11 -10 -10 -10 -10 -10 -10 -10 -10 -10 -10 -11 -11 -11 -11 -12 -13 -13 -13 -13 -14 -14 -14 -14 -14 -14
-13 -12 -12 -11 -11 -11 -11 -11 -11 -11 -10 -10 -10 -11 -11 -11 -11 -11 -11 -10 -10 -10 -10 -11 -11 -11 -11 -11 -11 -12 -12 -12 -12 -12 -12 -13 -13 -14 -15 -15 -15 -15 -15 -15
-12 -12 -11 -11 -11 -11 -11 -12 -12 -12 -12 -11 -11 -11 -11 -10 -10 -10 -10 -11 -11 -10 -11 -11 -11 -11 -11 -12 -12 -12 -12 -13 -13 -13 -14 -15 -15 -15 -16 -16 -16 -16 -16 -16
-12 -12 -11 -11 -11 -11 -11 -12 -11 -11 -11 -10 -10 -10 -10 -10 -11 -11 -10 -11 -12 -11 -10 -11 -11 -12 -12 -12 -12 -13 -13 -14 -15 -15 -16 -16 -17 -17 -17 -17 -17 -17 -17 -17
-11 -11 -12 -12 -12 -12 -12 -11 -10 -10 -9 -9 -9 -10 -10 -10 -11 -11 -10 -11 -11 -11 -11 -12 -12 -12 -12 -13 -13 -14 -15 -16 -16 -17 -18 -18 -19 -19 -18 -19 -19 -19 -19 -19
-13 -13 -13 -12 -11 -11 -11 -10 -10 -10 -10 -9 -10 -10 -10 -10 -10 -11 -11 -11 -11 -12 -12 -12 -12 -13 -14 -15 -16 -17 -17 -18 -19 -19 -20 -19 -20 -20 -19 -19 -20 -20 -20 -20
-13 -12 -12 -12 -11 -11 -11 -11 -11 -11 -10 -10 -10 -11 -11 -11 -11 -11 -11 -12 -12 -12 -13 -13 -14 -15 -16 -18 -18 -19 -20 -20 -20 -20 -20 -20 -20 -21 -21 -21 -22 -22 -22 -22
-12 -12 -12 -11 -11 -11 -12 -11 -11 -11 -11 -11 -11 -12 -12 -12 -12 -12 -13 -13 -13 -14 -15 -16 -17 -18 -19 -20 -21 -21 -21 -21 -21 -21 -22 -22 -22 -22 -22 -22 -22 -22 -22 -21
-12 -12 -12 -12 -12 -12 -12 -12 -11 -12 -12 -12 -12 -12 -13 -13 -13 -13 -13 -14 -15 -16 -17 -18 -20 -21 -21 -22 -22 -22 -22 -22 -22 -23 -23 -23 -23 -23 -24 -24 -23 -22 -22 -21
-12 -12 -12 -12 -13 -13 -12 -12 -12 -12 -13 -13 -13 -13 -13 -14 -14 -14 -15 -16 -17 -18 -20 -21 -22 -22 -22 -22 -22 -22 -23 -23 -23 -23 -24 -24 -24 -24 -24 -24 -24 -24 -23 -23
-12 -12 -12 -12 -13 -12 -13 -13 -13 -13 -13 -13 -13 -14 -14 -14 -15 -15 -16 -17 -19 -20 -21 -22 -22 -22 -22 -23 -23 -23 -23 -23 -24 -24 -24 -25 -25 -25 -25 -25 -25 -24 -24 -24
-13 -13 -13 -13 -13 -13 -14 -14 -14 -14 -14 -14 -14 -14 -14 -15 -15 -17 -18 -20 -20 -21 -22 -22 -22 -23 -23 -23 -23 -24 -24 -24 -24 -24 -25 -25 -25 -25 -25 -25 -25 -25 -25 -25
Height
5750 5760 5770 5779 5784 5783 5791 5796 5798 5801 5805 5810 5811 5812 5812 5817 5818 5819 5820 5822 5825 5825 5827 5826 5826 5825 5824 5822 5821 5819 5818 5817 5815 5815 5813 5812 5812 5811 5809 5808 5806 5804 5801 5799
5748 5758 5769 5773 5776 5784 5792 5795 5796 5799 5804 5806 5808 5809 5811 5813 5815 5815 5818 5820 5821 5822 5822 5822 5821 5820 5818 5817 5815 5814 5812 5810 5810 5809 5807 5806 5804 5803 5801 5799 5797 5795 5792 5790
5749 5761 5763 5771 5778 5784 5790 5789 5793 5798 5801 5803 5804 5806 5808 5810 5812 5814 5816 5817 5817 5817 5817 5817 5816 5815 5814 5813 5811 5809 5807 5806 5804 5803 5802 5800 5798 5796 5794 5791 5790 5786 5784 5781
5748 5755 5764 5770 5776 5782 5785 5787 5791 5795 5797 5799 5801 5803 5805 5807 5808 5812 5813 5813 5813 5814 5813 5812 5811 5810 5809 5808 5806 5805 5803 5801 5799 5797 5795 5794 5792 5789 5785 5783 5781 5778 5776 5773
5746 5754 5763 5769 5774 5778 5785 5787 5790 5792 5794 5796 5798 5800 5802 5804 5805 5808 5808 5807 5808 5808 5807 5806 5805 5804 5803 5802 5801 5799 5797 5795 5793 5790 5788 5786 5784 5781 5778 5775 5772 5769 5766 5764
5748 5754 5761 5767 5773 5777 5780 5784 5787 5788 5790 5792 5795 5796 5797 5799 5801 5802 5802 5802 5802 5802 5801 5800 5800 5799 5798 5797 5795 5793 5791 5789 5786 5783 5780 5777 5774 5772 5768 5764 5762 5758 5754 5750
5746 5755 5763 5766 5770 5774 5778 5781 5783 5785 5786 5789 5791 5792 5791 5795 5795 5796 5799 5799 5798 5798 5796 5795 5794 5793 5792 5791 5789 5787 5784 5781 5778 5775 5772 5768 5765 5761 5757 5753 5749 5745 5741 5736
5749 5757 5759 5763 5769 5773 5776 5779 5780 5781 5783 5786 5788 5789 5789 5790 5789 5792 5793 5793 5792 5792 5791 5790 5788 5787 5785 5783 5780 5778 5775 5772 5768 5765 5761 5757 5753 5748 5744 5740 5736 5731 5726 5721
5748 5754 5758 5763 5767 5772 5775 5777 5779 5780 5782 5784 5787 5787 5786 5788 5788 5787 5786 5787 5786 5784 5784 5783 5782 5780 5778 5775 5772 5769 5766 5763 5758 5754 5750 5745 5740 5735 5730 5725 5720 5715 5710 5706
5750 5754 5757 5761 5766 5770 5773 5775 5777 5778 5780 5782 5784 5785 5782 5784 5783 5783 5782 5781 5781 5780 5778 5775 5773 5772 5769 5765 5762 5758 5754 5750 5746 5741 5736 5731 5726 5720 5715 5710 5705 5700 5695 5690
5748 5754 5758 5760 5764 5767 5771 5772 5774 5776 5777 5778 5780 5783 5779 5776 5777 5776 5774 5774 5773 5772 5768 5765 5764 5762 5759 5755 5751 5746 5741 5735 5730 5725 5720 5716 5711 5706 5700 5695 5690 5685 5680 5675
5747 5751 5754 5759 5761 5764 5767 5769 5771 5772 5775 5773 5775 5779 5774 5772 5769 5767 5765 5765 5765 5763 5758 5756 5754 5750 5746 5742 5738 5732 5727 5722 5718 5713 5707 5701 5696 5691 5686 5680 5675 5669 5664 5658
5745 5749 5751 5754 5758 5761 5764 5766 5766 5767 5768 5767 5767 5772 5767 5766 5764 5760 5757 5756 5756 5754 5749 5744 5741 5737 5732 5727 5724 5719 5713 5709 5704 5698 5693 5688 5681 5675 5670 5664 5659 5653 5647 5641
5744 5746 5748 5752 5755 5757 5759 5760 5761 5761 5762 5760 5763 5761 5761 5759 5756 5754 5750 5748 5744 5741 5738 5734 5730 5725 5720 5715 5711 5706 5700 5694 5689 5682 5677 5671 5666 5660 5654 5648 5642 5635 5629 5622
5740 5743 5745 5748 5750 5752 5754 5756 5755 5756 5757 5752 5757 5752 5754 5751 5750 5745 5741 5738 5734 5730 5726 5723 5718 5713 5708 5702 5696 5689 5682 5676 5671 5665 5659 5653 5647 5641 5634 5628 5622 5616 5609 5603
5737 5739 5741 5743 5744 5745 5748 5749 5748 5748 5749 5748 5746 5748 5741 5740 5740 5738 5733 5728 5725 5720 5717 5711 5704 5697 5691 5685 5679 5672 5665 5658 5652 5645 5638 5632 5626 5620 5614 5608 5601 5594 5588 5582
5735 5736 5738 5740 5739 5740 5744 5743 5743 5742 5742 5740 5739 5736 5734 5731 5728 5727 5723 5717 5711 5708 5704 5696 5689 5682 5675 5668 5661 5655 5647 5639 5632 5624 5618 5610 5603 5597 5589 5583 5577 5571 5567 5561
5732 5732 5735 5737 5736 5737 5738 5739 5738 5737 5736 5733 5730 5727 5723 5720 5717 5713 5707 5704 5696 5690 5685 5678 5670 5663 5656 5648 5640 5631 5623 5616 5609 5602 5595 5588 5581 5574 5568 5562 5555 5549 5543 5537
5725 5725 5727 5728 5726 5728 5732 5731 5728 5727 5727 5723 5720 5716 5712 5709 5704 5698 5692 5686 5678 5671 5665 5658 5650 5642 5634 5626 5618 5610 5602 5595 5587 5579 5572 5565 5558 5553 5546 5539 5532 5526 5521 5516
5719 5719 5720 5721 5721 5722 5722 5721 5720 5718 5715 5712 5708 5703 5698 5694 5689 5683 5677 5670 5664 5654 5647 5639 5629 5621 5613 5604 5596 5587 5579 5571 5564 5558 5552 5545 5537 5530 5525 5518 5512 5504 5497 5493
5713 5713 5715 5713 5711 5714 5712 5710 5708 5707 5706 5699 5696 5692 5687 5680 5676 5669 5664 5656 5648 5639 5629 5620 5609 5600 5590 5582 5574 5566 5559 5552 5546 5540 5533 5526 5519 5511 5505 5499 5492 5486 5479 5472
5709 5708 5709 5707 5704 5704 5703 5700 5698 5694 5690 5687 5682 5677 5670 5662 5654 5648 5642 5633 5624 5612 5604 5596 5586 5576 5567 5559 5553 5547 5541 5534 5529 5522 5514 5507 5500 5494 5487 5480 5473 5466 5456 5449
5704 5701 5698 5698 5699 5695 5690 5685 5683 5682 5679 5673 5668 5660 5653 5643 5635 5628 5620 5612 5602 5592 5582 5573 5564 5555 5547 5541 5535 5530 5522 5516 5510 5503 5496 5490 5484 5476 5467 5459 5451 5442 5432 5422
5693 5691 5692 5686 5691 5685 5677 5675 5672 5667 5663 5657 5651 5644 5636 5626 5618 5606 5595 5585 5575 5567 5559 5552 5546 5538 5531 5524 5517 5509 5504 5500 5494 5487 5480 5473 5466 5457 5448 5438 5427 5417 5407 5396
5680 5681 5679 5676 5672 5669 5665 5662 5658 5653 5648 5640 5633 5624 5614 5604 5593 5584 5574 5565 5556 5548 5541 5535 5529 5523 5516 5509 5503 5495 5490 5484 5477 5470 5462 5454 5445 5436 5426 5416 5403 5392 5381 5368
5669 5669 5667 5664 5662 5657 5654 5647 5642 5636 5627 5618 5611 5603 5594 5585 5574 5564 5556 5548 5539 5533 5526 5521 5514 5508 5500 5494 5488 5480 5473 5465 5458 5450 5439 5430 5420 5410 5399 5388 5382 5371 5357 5347
Wind_Speed
53 48 47 39 36 42 36 33 28 30 30 25 26 25 27 24 23 24 23 21 18 20 22 25 27 30 33 35 34 33 32 30 28 26 28 29 31 33 35 36 37 38 40 42
51 48 45 43 43 40 34 28 27 30 29 24 25 24 25 24 20 22 21 22 23 25 27 29 31 32 32 31 29 28 28 29 28 29 31 33 35 36 38 40 41 42 43 45
42 41 48 43 37 39 35 30 29 30 29 25 25 25 25 24 22 21 22 24 27 30 31 31 30 27 27 27 28 28 28 29 30 31 31 34 36 36 38 40 40 41 42 43
43 46 40 40 39 37 34 30 29 29 27 26 25 27 25 25 26 25 28 30 31 30 28 26 24 25 26 26 25 26 28 29 30 31 31 33 34 35 37 38 39 40 40 41
46 41 43 38 34 33 26 28 31 29 25 23 24 25 25 25 26 26 28 28 26 25 22 23 24 24 25 26 26 28 30 32 34 36 38 39 40 42 44 46 47 48 49 48
41 42 40 31 28 25 26 27 28 25 22 25 23 24 25 25 26 22 20 19 19 20 23 24 26 27 28 29 31 34 36 38 40 42 44 45 46 48 50 52 53 54 55 56
37 32 27 26 24 23 23 24 23 21 20 21 21 23 26 23 21 20 18 20 21 23 25 27 30 32 33 35 38 39 41 43 45 47 50 51 53 54 55 56 56 56 57 59
29 30 27 23 20 18 20 22 23 23 22 21 19 19 22 22 23 21 22 23 26 28 31 33 35 36 38 40 42 44 45 47 47 48 48 49 51 53 54 56 58 61 63 64
28 25 23 21 20 19 21 19 18 18 18 17 18 19 23 21 23 27 29 30 32 35 37 38 39 40 41 41 43 44 45 47 49 51 52 55 57 59 61 63 65 66 68 68
20 19 21 20 20 19 18 17 16 17 17 18 18 19 25 25 27 30 32 34 33 36 37 38 38 39 40 43 46 48 50 52 54 56 58 59 60 61 63 64 65 65 66 65
20 18 19 19 19 18 17 16 16 16 18 20 21 19 25 29 30 31 34 34 35 35 38 40 41 42 43 47 49 51 52 55 57 58 58 59 59 60 60 61 62 62 63 64
18 18 17 17 19 19 18 17 18 20 19 23 25 20 25 28 29 33 35 35 35 35 41 45 45 47 49 51 51 51 53 55 56 57 58 59 61 62 64 64 65 67 69 70
18 17 18 20 20 18 17 17 18 21 23 24 27 19 23 26 28 33 37 37 36 39 43 47 49 49 50 51 52 55 57 59 61 62 63 64 65 66 66 68 70 71 71 71
18 20 20 19 17 18 19 19 20 21 19 24 22 23 24 26 33 35 38 40 40 38 39 44 50 54 56 59 61 63 64 67 68 69 69 69 69 69 68 68 68 68 69 71
16 17 21 21 22 22 20 16 18 21 21 30 23 31 27 32 32 33 36 39 43 46 50 53 55 59 63 66 68 70 71 72 72 73 74 74 74 74 74 72 72 73 73 72
11 14 15 15 17 19 19 18 23 25 26 30 32 27 33 34 33 36 41 46 50 54 55 59 64 66 68 69 70 72 73 74 75 76 78 78 76 73 71 70 72 72 74 75
15 16 17 17 21 23 21 21 24 26 26 28 28 32 34 37 41 44 49 54 59 61 62 65 69 72 74 76 77 78 79 80 80 80 77 75 76 76 75 71 71 74 75 77
19 21 22 22 25 27 23 19 20 23 24 29 33 37 41 44 48 54 57 58 62 67 70 73 76 78 81 83 84 84 83 81 79 78 77 75 74 74 75 75 76 78 79 80
22 23 22 22 26 25 20 23 27 29 32 36 40 44 49 52 54 58 64 67 72 75 77 79 82 84 85 85 85 83 82 81 79 75 73 74 75 77 79 80 79 80 81 80
14 16 18 21 24 26 27 29 33 38 42 46 50 52 56 59 63 66 68 70 73 78 81 84 87 87 86 85 83 79 76 75 75 74 74 76 76 74 75 76 72 70 71 71
17 19 20 24 29 31 33 38 40 43 50 53 55 57 61 62 63 66 68 73 77 82 86 87 86 84 80 75 73 72 73 73 74 76 77 76 74 73 70 68 68 69 70 72
20 24 26 30 34 37 39 43 48 52 55 58 60 61 63 68 72 74 77 80 82 84 83 81 76 75 72 71 69 68 69 70 71 72 69 67 66 66 67 69 70 73 77 79
24 31 34 38 38 42 47 53 57 58 59 60 61 63 68 73 77 80 81 81 82 81 74 71 69 67 65 66 67 68 67 65 62 61 61 61 62 67 71 74 78 80 83 86
33 38 40 46 42 47 54 56 61 62 61 63 66 69 74 76 78 80 83 82 79 70 64 62 60 62 64 66 65 62 59 58 58 59 62 66 69 72 76 79 81 82 82 83
45 46 49 51 53 58 59 60 62 63 65 69 72 73 77 80 82 84 82 77 69 62 59 59 61 62 63 59 57 59 61 61 63 66 69 72 74 77 79 80 82 82 80 79
48 49 53 56 56 59 60 63 65 68 72 74 76 79 82 84 83 80 73 66 62 59 58 58 60 59 57 59 62 64 65 68 71 73 76 78 81 83 85 86 82 80 76 69
Wind_Direction
205 207 209 216 217 219 221 216 217 230 237 234 234 232 241 248 243 241 239 233 244 254 267 274 281 283 285 285 286 287 287 286 287 285 281 278 283 284 284 284 284 283 281 281
206 209 207 215 218 216 221 221 226 236 240 231 230 233 239 247 245 239 239 245 256 268 273 277 280 280 282 284 285 285 285 285 284 286 286 286 285 287 286 285 282 282 282 283
202 199 208 212 217 220 219 219 226 238 237 236 230 233 238 242 243 244 251 261 268 274 278 281 282 283 284 286 288 289 290 293 295 295 294 291 290 289 288 288 288 287 287 287
198 201 203 210 215 216 217 220 229 236 236 233 234 235 243 247 253 259 265 269 273 277 280 279 280 281 284 284 286 289 292 293 292 291 290 290 290 290 290 290 291 292 291 291
195 192 203 208 209 214 218 226 234 238 239 237 238 242 243 253 262 267 265 266 270 276 279 279 279 279 279 281 285 287 290 291 291 292 292 293 294 293 293 292 291 290 289 289
185 192 200 202 205 209 216 224 231 235 237 241 242 249 255 256 265 262 262 268 269 270 272 274 275 278 282 285 288 289 289 290 291 291 291 291 291 291 291 291 292 291 291 289
183 188 191 195 198 206 213 217 219 221 225 235 238 248 262 259 263 261 268 273 275 276 277 279 282 282 282 284 286 287 287 289 290 291 292 292 292 291 290 289 288 288 287 286
179 185 183 186 188 197 203 208 217 216 220 229 240 251 260 272 273 279 277 278 279 280 280 284 287 290 291 292 294 294 294 294 293 293 292 291 289 287 286 286 285 284 284 283
182 179 181 184 189 195 204 205 210 221 230 236 240 251 260 270 276 280 283 285 290 291 293 294 295 296 297 297 294 294 294 294 293 292 290 288 287 286 285 284 283 283 282 282
179 184 183 188 195 202 206 209 217 229 237 242 242 254 267 271 277 283 286 289 290 295 297 296 296 296 295 294 296 297 296 294 293 292 291 290 289 288 286 285 284 285 286 286
182 190 191 195 204 209 216 225 235 245 257 265 266 274 287 289 291 294 293 296 298 301 300 297 298 298 296 297 297 296 296 295 294 293 292 291 290 289 288 288 288 287 285 285
197 201 210 213 219 224 231 243 255 263 269 279 283 290 293 294 297 298 296 300 301 300 295 298 299 299 299 297 296 294 292 291 291 291 291 290 289 287 286 285 284 284 284 284
214 225 227 232 235 244 257 264 274 281 285 292 284 295 282 288 285 289 294 295 297 297 299 301 300 299 298 299 299 297 297 297 295 293 292 290 289 288 287 287 287 286 285 285
223 230 242 250 258 262 269 277 280 282 292 280 299 283 289 285 286 290 291 295 299 298 297 299 301 301 301 301 302 300 299 299 299 298 297 295 292 290 289 288 286 285 285 286
227 242 249 254 261 265 268 276 284 288 288 287 287 288 295 287 292 294 297 299 299 300 301 302 301 301 301 301 299 299 298 298 297 296 295 295 294 293 292 290 288 286 285 284
220 234 247 258 261 269 272 277 277 285 289 291 295 303 292 291 294 298 296 295 297 298 301 301 299 299 299 298 298 297 296 296 296 295 294 294 291 290 289 289 289 288 287 286
239 246 249 256 270 274 288 292 297 298 301 298 299 297 293 294 296 294 296 298 299 300 301 300 301 301 300 300 299 298 298 297 295 294 294 294 293 292 291 289 287 286 282 281
252 258 261 266 269 271 281 295 293 293 297 301 298 299 300 300 298 299 300 303 303 301 300 300 300 299 298 298 298 297 296 295 295 295 294 292 291 290 287 285 285 284 282 281
271 270 271 276 272 277 296 296 293 296 295 298 296 298 299 300 301 303 303 303 301 300 299 298 297 297 298 298 297 297 297 296 294 291 289 288 288 286 285 286 286 285 285 285
271 276 282 284 286 290 295 289 295 295 298 297 299 300 301 300 300 298 297 296 295 295 295 296 297 298 298 299 300 299 295 292 292 292 291 290 289 288 289 289 287 286 285 285
268 271 281 285 284 284 287 292 295 299 298 295 296 297 296 295 294 294 295 295 295 295 296 298 299 300 299 298 295 292 292 293 294 295 294 293 293 295 294 292 291 290 289 288
274 277 279 279 283 287 294 297 296 297 299 299 298 297 298 298 299 301 301 300 300 299 300 300 299 298 296 295 296 297 296 296 296 296 296 296 295 294 294 293 293 293 293 292
288 283 285 286 288 297 298 297 299 302 303 300 300 300 301 302 302 303 303 302 302 304 300 298 296 297 298 298 297 297 299 299 299 298 297 298 299 300 302 301 300 298 297 296
283 283 287 287 300 298 299 300 301 300 301 300 300 301 302 303 304 305 306 307 305 303 298 298 299 299 299 299 301 303 302 302 302 301 301 301 302 303 302 302 302 300 299 297
283 285 288 292 298 296 298 298 297 298 299 300 302 304 306 306 307 307 307 305 302 299 301 302 300 300 301 302 304 303 302 302 302 302 302 303 303 303 304 304 304 303 303 302
285 290 291 291 293 294 297 298 298 300 302 304 306 307 306 306 307 308 307 305 305 304 302 301 300 300 302 305 304 303 304 304 304 304 306 306 306 307 308 308 308 308 306 303